Location: Karlsruhe
(49.0131°N, 8.3874°E)
Time: 05:06:28
(UTC+01:00)

OTV 5 (USA 277) - Visible Passes

Search period start: 19 February 2018 00:00
Search period end: 01 March 2018 00:00
Orbit: 404 x 417 km, 43.0° (Epoch: 07 September)

Date Brightness Start Highest point End Pass type
(mag) Time Alt. Az. Time Alt. Az. Time Alt. Az.
20 Feb ? 06:48:49 10° S 06:50:31 13° SSE 06:52:13 10° SE visible
21 Feb ? 05:59:32 10° SSE 05:59:40 10° SSE 05:59:48 10° SSE visible
22 Feb ? 06:42:47 10° SW 06:45:20 21° SSE 06:47:52 10° ESE visible
23 Feb ? 05:52:17 10° SSW 05:54:26 17° SSE 05:56:40 10° ESE visible
24 Feb ? 05:03:42 13° SSE 05:03:42 13° SSE 05:05:15 10° SE visible
24 Feb ? 06:37:24 10° SW 06:40:14 26° S 06:43:04 10° ESE visible
25 Feb ? 05:47:48 17° SSW 05:49:17 24° SSE 05:52:01 10° ESE visible
26 Feb ? 04:59:06 19° SE 04:59:06 19° SE 05:00:55 10° ESE visible
26 Feb ? 06:32:17 10° WSW 06:35:10 28° S 06:38:04 10° ESE visible
27 Feb ? 05:43:07 23° SSW 05:44:13 28° S 05:47:06 10° ESE visible
28 Feb ? 04:54:23 22° SE 04:54:23 22° SE 04:56:06 10° ESE visible
28 Feb ? 06:27:21 10° WSW 06:30:06 25° S 06:32:51 10° SE visible
